Dewpoint
59 59 60 59 59 58 58 59 59 60 61 62 62 61 62 64 65 65 65 66 66 65 65 64 63 62 62 63 62 62 58 52 50 49 49 49 55 60 65 64 61 62 64 46 46 39 38 40 41 43 43 47 49 47 50 46 45 47 40 36 36 34 34 35 33 32 23 21 24 30 31 30 29 32 33 34 33 33 34 34 45 46 50 56 59 58 59 60
58 59 59 60 59 58 59 58 59 60 62 63 63 62 62 64 65 65 65 65 65 65 65 64 63 62 62 62 62 60 55 52 49 48 48 56 59 60 63 63 61 61 62 45 35 38 38 41 40 45 40 40 54 44 46 48 45 43 36 36 33 35 33 27 25 24 26 20 20 25 27 30 30 29 31 29 29 29 33 33 42 45 50 51 58 59 59 60
57 58 58 59 59 58 58 58 59 60 62 62 62 62 63 63 64 64 65 65 65 65 64 64 63 62 62 62 60 59 54 51 49 47 48 60 62 59 63 65 61 63 51 39 34 38 38 41 42 46 45 41 42 41 43 39 39 37 39 34 34 37 29 27 28 22 22 22 20 20 23 27 29 29 31 31 27 28 29 30 37 39 48 51 58 59 60 60
57 58 59 59 58 58 58 58 59 60 61 62 62 63 63 63 64 64 65 64 64 64 64 63 63 62 62 61 60 57 54 52 48 49 49 60 63 61 63 66 62 61 50 45 38 39 39 42 42 42 46 44 43 42 39 41 40 38 34 34 38 34 31 27 24 23 22 22 21 21 22 23 25 27 30 29 28 27 28 28 33 34 47 50 57 59 59 59
57 57 58 58 58 58 59 58 59 60 61 61 62 63 63 63 63 64 64 64 64 64 63 63 62 62 62 61 59 57 53 49 50 52 52 63 63 62 63 64 61 55 49 44 44 41 39 42 42 43 43 42 45 44 40 37 37 41 33 34 31 33 36 25 22 23 23 23 24 21 20 23 24 25 28 27 26 25 25 29 29 33 45 50 54 59 59 59
57 57 57 57 58 58 58 58 59 60 60 60 60 60 61 63 63 63 64 63 63 63 63 62 62 62 62 61 58 57 51 44 50 51 63 63 63 61 61 62 61 52 49 48 45 41 40 43 44 44 41 43 44 43 42 41 36 35 34 33 32 30 29 27 23 25 23 24 25 23 25 23 23 23 23 24 24 26 28 28 29 31 45 50 53 59 59 59
57 57 56 58 58 58 58 58 59 59 59 59 59 59 58 58 60 63 63 63 63 63 63 62 62 62 61 59 57 54 50 49 47 58 62 62 62 61 61 62 61 54 55 48 47 42 43 45 46 45 44 45 45 45 44 43 39 37 35 33 32 32 28 25 21 25 21 26 25 22 25 25 23 21 24 22 23 25 29 28 29 33 48 49 51 58 58 58
56 56 57 57 57 58 58 59 59 58 58 57 57 57 58 58 58 61 63 63 63 63 63 62 61 61 60 56 53 51 49 48 53 58 62 61 59 60 60 55 52 53 55 53 48 47 47 45 45 45 44 45 47 45 45 46 39 36 38 39 34 32 33 21 20 20 22 23 21 25 24 21 21 23 23 23 24 24 30 28 29 35 47 49 50 54 57 58
56 56 57 57 57 57 58 58 58 58 57 58 58 58 57 57 57 58 62 62 63 63 62 62 61 61 59 53 48 47 47 49 50 57 59 58 57 56 54 48 50 54 56 56 53 53 47 49 45 46 44 46 47 45 46 48 31 33 37 40 28 28 27 23 22 22 21 21 23 22 20 21 23 24 21 21 21 22 31 30 29 34 44 48 50 51 53 57
56 56 56 57 56 57 57 57 57 57 58 58 58 59 59 58 58 59 61 62 62 62 62 62 61 60 57 50 48 44 48 49 52 57 58 55 54 51 47 47 50 50 50 56 55 54 49 47 46 47 48 47 50 46 51 45 37 36 36 39 31 26 27 25 24 24 24 27 20 20 21 22 23 22 20 22 21 22 32 31 33 32 41 44 48 50 50 53
56 56 56 56 56 56 57 56 56 56 58 57 58 59 59 59 60 60 61 62 62 62 62 61 61 58 55 49 46 45 50 49 52 55 56 55 52 48 46 46 48 49 53 57 57 57 57 55 53 49 51 47 51 47 47 39 40 39 38 39 32 27 27 26 26 24 25 27 23 22 21 24 22 28 20 24 27 30 28 28 32 33 34 39 42 48 50 51
55 55 54 56 56 56 56 56 55 56 57 57 58 58 58 58 58 60 61 62 62 62 62 61 60 56 52 49 46 47 48 51 51 53 52 54 52 49 48 48 47 49 54 52 56 58 58 57 52 49 51 47 44 47 47 41 41 40 36 30 28 28 26 26 26 26 26 27 27 27 26 23 23 20 21 22 26 24 26 26 33 34 33 35 38 45 49 50
55 56 56 56 55 56 55 55 55 57 57 58 58 58 58 58 58 57 59 62 62 62 61 61 59 55 52 49 48 54 48 51 51 52 51 53 52 50 48 50 49 51 52 52 56 58 58 56 56 49 45 52 47 44 44 44 41 40 37 33 33 31 29 30 29 28 27 26 28 29 30 31 26 24 22 22 23 23 24 24 33 35 33 32 36 42 48 49
55 55 55 55 55 55 55 55 56 57 58 58 58 59 58 58 58 58 58 61 62 61 61 61 58 54 50 47 52 54 55 51 51 51 50 52 50 50 49 51 53 52 53 51 57 58 57 57 57 53 48 50 44 40 42 44 42 38 39 39 39 38 36 35 32 30 27 29 29 29 30 32 34 27 26 23 25 24 23 23 28 33 33 32 36 40 46 49
55 55 55 55 56 56 55 56 56 57 57 57 58 58 58 57 58 58 58 60 62 61 61 60 58 53 49 50 52 54 62 59 50 50 50 50 49 47 49 51 51 52 51 53 54 55 54 55 55 54 50 51 46 43 39 41 39 39 38 38 40 39 39 39 36 32 30 28 29 28 30 30 32 32 27 24 26 24 22 22 23 30 33 33 37 42 44 47
55 55 55 55 55 55 56 55 56 56 58 58 58 57 57 57 57 57 57 59 62 61 61 58 56 51 47 47 49 61 55 49 49 51 51 50 49 46 50 47 50 51 52 51 52 51 52 54 53 53 52 43 40 42 36 38 37 39 39 41 38 39 39 37 38 36 33 28 30 29 31 34 30 32 30 24 24 23 22 21 21 22 29 34 37 42 44 45
55 55 55 55 55 55 55 55 55 56 56 57 57 57 57 56 56 57 57 58 61 61 59 55 55 52 45 52 53 51 52 51 51 54 53 50 46 48 48 46 46 49 51 48 48 47 49 49 48 50 49 50 39 40 37 38 38 39 40 38 41 39 39 37 39 39 38 29 28 30 31 34 35 32 34 25 24 23 22 23 24 23 21 31 36 38 40 41
55 55 54 55 55 55 55 55 55 57 56 56 55 55 55 57 57 56 55 57 61 60 58 58 55 51 47 50 47 49 52 50 50 54 55 48 43 46 45 43 45 47 43 45 46 45 47 44 47 48 48 46 43 39 38 37 39 39 39 38 37 39 40 37 34 37 38 37 34 30 31 32 35 31 25 23 24 25 25 26 27 27 23 24 34 36 38 38
54 54 55 55 55 54 55 55 55 55 56 56 56 56 56 57 58 57 54 55 55 51 48 49 50 43 40 47 48 50 50 49 53 55 54 47 43 46 45 45 45 42 40 41 40 42 43 42 43 47 43 44 42 39 40 39 39 40 39 38 37 38 38 37 34 36 37 36 37 33 30 31 33 35 34 22 22 24 26 28 29 28 25 22 27 34 36 38
54 54 54 54 55 54 55 56 55 55 56 56 55 54 52 48 48 48 52 52 53 50 49 51 52 48 48 49 47 49 51 54 52 53 52 50 43 43 44 44 46 43 39 39 40 40 42 40 41 41 43 42 41 40 40 40 40 41 39 38 37 38 37 36 31 34 36 34 34 34 35 35 35 34 34 36 26 23 25 26 26 25 24 22 22 25 32 37
54 53 53 54 54 54 54 54 55 55 55 53 52 47 43 44 41 39 46 49 52 54 51 51 51 50 48 48 49 48 48 51 52 51 51 50 46 44 44 43 41 39 39 40 40 41 40 39 40 42 41 41 41 44 45 42 39 40 39 38 37 39 37 37 31 32 34 33 32 33 33 34 34 34 35 34 34 31 23 23 24 25 26 26 26 25 29 30
53 53 52 53 53 54 55 55 55 55 54 52 49 46 45 46 49 51 50 46 51 54 53 51 52 51 50 49 49 49 49 49 49 50 52 49 46 44 43 42 40 39 40 40 40 39 39 39 40 41 41 41 40 40 39 39 39 40 40 39 38 37 39 23 23 26 27 31 29 30 30 31 31 31 30 32 33 32 33 30 28 28 30 30 27 27 28 31
52 52 53 54 54 54 54 54 54 54 54 51 47 46 46 50 51 52 51 46 45 53 52 51 50 49 48 49 50 50 48 48 48 49 49 49 45 43 42 41 40 40 40 39 38 38 37 39 40 42 41 41 41 40 39 39 39 39 39 38 36 40 38 35 23 24 25 29 32 28 25 26 27 29 29 28 27 28 30 32 33 33 32 33 32 29 30 30
52 52 53 53 53 53 54 53 53 53 52 49 48 47 52 52 52 51 47 40 40 50 51 51 50 48 48 48 51 50 48 48 48 48 49 47 43 44 42 41 40 40 40 39 38 38 38 39 41 42 41 40 40 39 38 37 37 40 41 39 39 40 39 34 29 28 23 25 29 27 29 29 31 32 33 32 29 28 29 30 30 32 35 34 38 39 37 31
52 52 52 52 53 53 53 53 50 50 52 51 50 52 53 54 51 49 44 40 42 43 53 50 51 49 50 55 52 48 49 49 48 48 48 46 43 42 41 41 41 40 41 39 39 39 39 41 42 41 41 40 40 39 39 40 37 38 40 40 39 40 38 28 31 28 26 30 26 30 30 32 34 34 33 34 34 31 30 30 29 29 30 32 32 35 39 40
52 52 52 52 52 52 52 47 48 51 50 48 49 52 52 52 51 50 44 32 31 42 50 44 53 49 54 51 51 51 49 47 49 47 48 47 47 42 41 41 42 40 42 40 39 41 40 42 42 41 41 41 40 40 41 40 38 37 37 40 39 38 39 32 34 35 30 30 34 32 30 28 31 30 32 33 34 34 34 32 31 29 27 29 30 31 33 36
52 52 52 51 51 50 44 42 50 50 46 47 51 52 52 51 50 48 40 31 30 41 42 50 49 49 52 51 50 48 42 43 51 51 47 49 45 45 41 43 43 43 43 42 41 41 42 41 42 42 40 40 40 38 39 39 38 36 39 41 40 39 38 37 34 34 34 35 32 31 32 27 27 29 31 31 30 30 31 33 33 31 28 27 27 28 30 33
52 52 51 51 50 47 43 47 47 46 47 50 52 52 52 50 49 48 38 24 24 46 43 46 48 57 52 50 49 44 45 47 44 48 48 48 47 44 42 42 42 42 43 41 36 41 41 41 41 40 40 39 38 38 40 39 38 38 39 41 39 38 39 38 35 34 35 31 27 27 31 25 26 28 29 29 29 29 29 29 32 31 30 28 28 27 29 30
51 52 50 50 51 49 46 44 45 45 50 52 52 52 51 50 48 38 28 21 38 42 51 44 55 51 51 50 48 47 45 45 43 46 50 50 51 47 40 41 41 41 44 41 38 37 40 42 39 39 39 37 39 38 40 39 38 37 40 41 40 39 39 36 33 33 33 28 27 28 30 26 27 30 29 30 29 29 28 29 28 29 30 29 29 28 29 30
52 51 50 50 47 45 44 44 48 50 52 52 52 52 50 48 42 32 27 19 41 33 44 47 47 46 49 47 47 47 44 45 45 46 47 48 50 48 43 42 40 39 43 40 39 39 33 36 41 39 37 38 38 38 42 39 39 38 37 34 34 35 34 32 32 27 26 26 28 31 30 28 26 30 29 31 30 28 27 27 27 29 30 29 29 29 32 30
51 51 50 47 41 44 42 43 48 51 52 52 51 50 47 42 32 26 21 27 38 35 45 45 43 49 46 44 42 45 44 44 44 44 44 47 46 47 45 44 45 38 38 37 34 35 36 38 39 41 38 40 39 39 42 40 36 36 35 32 31 30 31 29 27 27 26 27 27 29 31 29 26 27 31 30 28 26 26 25 25 26 28 31 30 29 29 29
51 50 49 43 46 44 40 42 48 51 51 51 50 46 41 28 33 26 23 43 30 33 35 39 45 46 45 45 43 44 43 43 43 43 43 43 43 43 41 37 40 35 36 36 35 36 34 36 39 38 39 38 38 35 35 36 36 35 33 31 31 27 27 26 26 27 27 26 22 24 31 28 27 28 28 28 24 25 26 25 25 27 29 32 36 36 36 35
51 51 49 48 46 49 49 48 49 50 51 50 47 44 33 27 21 29 32 34 29 39 34 41 43 45 45 43 43 44 44 41 43 42 43 42 42 42 42 39 40 37 33 36 34 33 34 38 38 38 37 38 37 34 32 31 33 33 31 31 31 28 27 24 25 25 25 25 23 23 29 26 28 26 29 29 29 26 24 26 28 29 27 30 35 33 36 36
51 51 48 47 50 51 50 49 49 50 49 48 44 36 33 26 25 35 32 33 34 39 40 40 43 45 44 41 42 43 41 43 42 42 42 41 42 40 41 43 39 38 38 37 33 33 31 32 34 35 34 37 37 36 34 34 32 32 35 33 32 30 27 25 26 24 23 23 22 27 24 25 24 27 26 28 29 28 25 26 27 29 29 30 34 36 35 36
49 49 49 49 49 50 50 50 50 50 48 44 36 32 26 25 33 30 31 32 34 37 36 40 40 43 42 42 44 43 41 39 42 42 41 41 39 40 40 39 39 38 38 35 34 33 33 33 36 37 38 36 36 39 36 35 34 35 37 37 32 31 29 26 24 24 23 22 19 21 25 26 26 27 25 25 23 23 24 25 28 27 29 31 29 33 34 35
49 48 47 46 47 49 50 50 49 48 45 39 31 28 27 30 29 34 32 37 37 34 36 38 38 41 40 40 42 41 44 40 42 41 41 40 41 39 41 40 38 37 36 34 35 32 33 32 35 36 37 34 36 38 36 35 31 33 34 31 32 33 30 25 23 23 22 23 24 24 22 25 24 23 24 25 24 21 22 22 24 26 27 30 31 33 34 34
46 46 44 46 47 48 50 49 48 46 43 36 30 26 32 30 34 37 39 37 37 38 37 32 33 35 36 36 39 40 41 42 41 40 37 41 40 40 40 39 39 37 37 35 34 36 31 30 35 34 33 35 37 37 37 37 38 33 31 32 36 36 33 26 24 21 20 20 21 23 22 21 21 23 26 24 24 20 19 21 22 25 28 26 29 33 36 36
43 44 44 44 46 48 47 49 45 43 40 33 28 32 33 32 37 39 42 41 40 39 35 34 34 36 35 35 36 40 41 39 39 40 38 41 37 41 40 39 39 37 37 37 34 36 33 29 31 35 34 35 37 38 36 38 38 33 32 37 31 27 26 26 22 18 17 17 19 21 22 22 22 22 21 22 23 21 17 20 20 21 23 24 27 31 35 36
42 40 38 44 48 47 48 46 42 41 35 30 28 30 31 34 38 37 39 41 40 38 35 35 33 33 34 35 38 40 41 37 40 39 36 39 36 41 40 39 38 38 38 36 33 36 34 29 29 34 34 33 34 34 31 33 36 37 35 32 35 29 27 25 25 23 23 19 15 20 19 21 25 21 21 22 22 21 17 18 18 18 21 21 25 30 33 35
37 35 36 45 47 48 47 42 41 38 32 27 29 30 36 31 34 37 38 39 39 39 35 34 33 32 33 33 39 38 41 40 40 39 38 40 38 41 40 40 38 38 37 37 36 37 33 31 28 30 36 34 33 32 32 32 30 28 30 29 31 28 29 27 25 25 21 18 19 18 19 23 25 22 21 21 21 20 20 21 25 25 23 25 29 34 37 40
36 35 37 45 46 47 44 40 36 31 30 35 35 31 32 31 33 34 37 38 40 42 39 36 34 33 33 33 35 41 40 41 40 39 38 39 38 38 41 39 39 37 37 37 36 36 32 31 28 28 28 29 31 34 35 34 31 29 29 29 29 28 23 24 23 25 23 20 19 18 19 20 25 21 20 20 20 22 23 23 28 27 27 30 33 35 40 40
32 31 35 43 47 46 39 33 34 38 34 30 28 33 33 36 33 34 35 38 38 38 41 38 37 34 33 33 34 38 40 40 40 38 38 38 39 39 40 40 38 38 36 35 35 37 34 32 29 28 28 30 33 36 35 36 36 32 29 29 31 30 26 24 22 24 21 23 20 20 16 22 28 21 22 20 20 18 23 25 28 29 28 28 32 36 39 38
32 34 40 44 47 43 35 31 34 33 31 35 38 36 37 34 34 35 34 36 35 37 37 36 35 34 34 34 34 34 35 36 40 38 38 38 39 40 42 40 39 39 37 36 37 38 34 30 29 29 30 31 31 34 35 34 36 32 31 32 30 28 28 26 25 23 24 21 19 20 18 22 25 27 23 27 28 25 27 27 26 27 28 30 31 35 37 37
35 35 38 43 45 43 33 27 28 30 32 34 33 33 36 36 35 33 33 35 34 34 34 35 38 38 34 36 35 33 37 33 39 39 37 38 38 41 42 41 39 38 37 36 35 42 31 30 29 27 27 27 27 28 29 30 32 30 29 29 31 31 31 29 26 23 21 25 23 22 19 22 29 26 26 23 21 20 20 22 26 27 31 31 31 35 35 38
32 34 37 40 42 40 30 29 28 29 31 30 31 31 32 34 35 36 35 33 35 35 35 33 36 39 35 37 33 35 35 34 34 41 43 39 39 42 43 41 40 38 38 40 38 40 33 31 29 26 24 23 22 24 26 27 27 29 31 31 31 31 30 28 26 23 21 24 24 21 21 22 19 22 22 23 20 17 19 20 23 31 32 32 34 35 36 36
30 26 34 37 38 37 34 32 29 29 29 31 30 31 33 32 35 36 36 35 35 34 36 37 38 37 35 35 33 33 32 34 33 33 36 37 36 40 42 42 40 39 39 39 38 35 32 32 30 29 28 27 27 29 33 32 29 27 29 30 30 31 31 30 26 24 23 24 24 24 23 23 18 18 20 21 19 17 17 21 20 24 26 32 35 37 37 38
30 28 30 27 34 34 30 32 30 27 27 30 27 31 30 31 33 35 36 32 36 35 35 35 34 33 33 34 33 33 33 32 33 34 34 37 37 40 43 42 41 40 39 38 38 35 32 30 31 31 30 30 31 33 32 31 29 29 29 29 31 30 30 30 27 25 26 24 22 25 26 26 24 21 19 19 21 21 22 20 21 24 28 30 33 36 36 38
25 28 30 31 27 26 28 27 28 29 29 28 27 31 29 30 31 29 35 34 37 37 34 35 34 35 35 33 34 32 32 32 33 32 36 35 38 40 41 43 41 40 38 38 38 35 32 30 32 32 31 32 32 33 31 31 30 30 30 30 29 30 29 29 28 28 28 25 23 25 26 25 24 23 20 19 20 18 19 19 21 22 31 34 35 33 30 30
34 30 30 32 27 28 27 28 29 30 28 27 27 28 28 29 29 32 33 33 34 35 35 30 32 34 34 35 35 33 34 31 31 33 32 33 34 39 39 40 42 41 39 41 40 37 33 31 33 32 31 32 32 32 32 30 30 30 30 30 30 30 29 29 28 29 28 26 26 25 29 27 25 24 22 19 21 21 19 23 26 26 29 30 30 29 27 26
31 27 29 30 32 27 27 28 28 27 25 27 23 27 27 28 29 31 34 33 30 33 35 32 32 34 34 34 35 32 35 37 36 31 35 35 33 36 39 39 38 39 41 37 37 37 34 31 34 32 31 31 33 33 32 31 30 29 30 30 30 30 30 30 29 29 29 27 27 26 26 26 26 27 25 22 20 26 25 21 20 22 26 26 26 26 25 25
34 36 34 27 26 27 27 27 26 25 24 25 23 26 27 27 27 31 31 34 32 31 34 31 33 34 35 34 34 34 35 36 37 38 38 37 34 39 39 38 42 37 38 34 35 35 35 32 34 32 30 30 32 32 31 31 30 30 29 30 29 29 29 29 28 29 28 27 27 27 26 25 25 28 28 22 27 22 21 20 19 22 24 25 25 25 24 24
36 38 36 30 25 28 26 26 26 24 21 24 24 25 23 26 28 29 28 33 33 34 35 34 35 34 34 34 33 34 36 36 36 36 38 40 41 38 39 42 42 41 37 37 37 34 35 34 33 32 30 30 32 31 31 31 30 28 29 30 30 29 29 29 30 30 29 28 27 27 25 26 30 28 27 25 24 24 20 20 19 22 24 24 25 25 24 24